HAZ3621 ZGGG-ZPLJ

Flight info

Callsign HAZ3621
Flight time 2h 34m
Altitude 36100
Route VIBOS9 VIBOS R473 ZUH R200 LH R339 BSE A599 GULOT W146 BUBSU/K0857S1130 W162 DAL DAL21A
Aircraft A320/M-SDE3FGHIRWY/LB1

Departure

Time 2026-04-28 09:02
Airport Guangzhou Baiyun International Airport (ZGGG)

Arrival

Time 2026-04-28 11:36
Airport Lijiang Sanyi International Airport (ZPLJ)
Time Latitude Longitude Altitude Speed Heading
2026-04-28 08:44 23.38733 113.30244 51 ft 0 kts 26°
2026-04-28 08:53 23.38728 113.30241 51 ft 2 kts 27°
2026-04-28 08:53 23.38715 113.30234 51 ft 2 kts 26°
2026-04-28 08:53 23.38701 113.30227 51 ft 2 kts 27°
2026-04-28 08:54 23.38688 113.30219 51 ft 2 kts 26°
2026-04-28 08:54 23.38675 113.30212 51 ft 2 kts 27°
2026-04-28 08:54 23.38661 113.30205 51 ft 2 kts 27°
2026-04-28 08:54 23.38651 113.30193 51 ft 2 kts 74°
2026-04-28 08:55 23.38651 113.30177 51 ft 1 kts 110°
2026-04-28 08:55 23.38654 113.30170 51 ft 1 kts 120°
2026-04-28 08:55 23.38656 113.30168 51 ft 0 kts 118°
2026-04-28 08:56 23.38655 113.30169 51 ft 0 kts 117°
2026-04-28 08:56 23.38652 113.30177 51 ft 1 kts 116°
2026-04-28 08:57 23.38644 113.30193 51 ft 2 kts 116°
2026-04-28 08:57 23.38630 113.30224 51 ft 6 kts 116°
2026-04-28 08:57 23.38610 113.30266 51 ft 7 kts 117°
2026-04-28 08:57 23.38594 113.30299 51 ft 8 kts 117°
2026-04-28 08:58 23.38574 113.30357 51 ft 9 kts 106°
2026-04-28 08:58 23.38549 113.30456 51 ft 10 kts 104°
2026-04-28 08:58 23.38528 113.30545 51 ft 11 kts 107°
2026-04-28 08:58 23.38458 113.30570 51 ft 13 kts 190°
2026-04-28 08:59 23.38361 113.30546 51 ft 16 kts 193°
2026-04-28 08:59 23.38236 113.30513 51 ft 17 kts 193°
2026-04-28 08:59 23.38114 113.30480 51 ft 18 kts 193°
2026-04-28 08:59 23.37992 113.30447 51 ft 18 kts 194°
2026-04-28 09:00 23.37869 113.30415 51 ft 18 kts 194°
2026-04-28 09:00 23.37793 113.30481 51 ft 16 kts 104°
2026-04-28 09:00 23.37788 113.30588 51 ft 12 kts 36°
2026-04-28 09:00 23.37815 113.30600 51 ft 0 kts 15°
2026-04-28 09:01 23.37879 113.30617 51 ft 37 kts 14°
2026-04-28 09:01 23.38363 113.30750 51 ft 103 kts 13°
2026-04-28 09:01 23.39252 113.30989 52 ft 157 kts 15°
2026-04-28 09:01 23.40392 113.31311 389 ft 171 kts 15°
2026-04-28 09:02 23.41545 113.31620 914 ft 176 kts 15°
2026-04-28 09:02 23.42758 113.31977 1457 ft 182 kts 18°
2026-04-28 09:02 23.43982 113.32338 1968 ft 183 kts 17°
2026-04-28 09:02 23.45220 113.32684 2428 ft 184 kts 17°
2026-04-28 09:03 23.46463 113.33034 2872 ft 188 kts 18°
2026-04-28 09:03 23.47736 113.33421 3322 ft 191 kts 19°
2026-04-28 09:03 23.49049 113.33842 3649 ft 205 kts 18°
2026-04-28 09:03 23.50481 113.34286 3957 ft 221 kts 17°
2026-04-28 09:04 23.52029 113.34753 4273 ft 238 kts 17°
2026-04-28 09:04 23.53700 113.35252 4554 ft 258 kts 16°
2026-04-28 09:04 23.55498 113.35778 4965 ft 274 kts 13°
2026-04-28 09:04 23.57367 113.36180 5674 ft 277 kts
2026-04-28 09:05 23.59265 113.36532 6407 ft 279 kts
2026-04-28 09:05 23.61174 113.36427 7103 ft 277 kts 336°
2026-04-28 09:05 23.62772 113.35317 7828 ft 269 kts 306°
2026-04-28 09:05 23.63676 113.33568 8287 ft 271 kts 279°
2026-04-28 09:06 23.63945 113.31506 8835 ft 277 kts 273°
2026-04-28 09:06 23.64178 113.29421 9553 ft 280 kts 274°
2026-04-28 09:06 23.64439 113.27347 10259 ft 281 kts 275°
2026-04-28 09:06 23.64725 113.25176 10624 ft 297 kts 275°
2026-04-28 09:07 23.65029 113.22911 10910 ft 313 kts 276°
2026-04-28 09:07 23.65360 113.20491 11182 ft 329 kts 276°
2026-04-28 09:07 23.65536 113.17963 11428 ft 341 kts 263°
2026-04-28 09:07 23.64914 113.15473 11808 ft 347 kts 244°
2026-04-28 09:08 23.63513 113.13305 12394 ft 350 kts 226°
2026-04-28 09:08 23.61770 113.11493 12980 ft 352 kts 225°
2026-04-28 09:08 23.59943 113.09705 13480 ft 356 kts 218°
2026-04-28 09:08 23.57731 113.08437 13927 ft 365 kts 201°
2026-04-28 09:09 23.55213 113.07899 14391 ft 373 kts 186°
2026-04-28 09:09 23.52603 113.07881 14879 ft 377 kts 182°
2026-04-28 09:09 23.49985 113.07909 15323 ft 380 kts 182°
2026-04-28 09:09 23.47328 113.07934 15786 ft 383 kts 182°
2026-04-28 09:10 23.44648 113.07954 16190 ft 386 kts 182°
2026-04-28 09:10 23.41916 113.07972 16575 ft 390 kts 182°
2026-04-28 09:10 23.39205 113.07990 16965 ft 392 kts 182°
2026-04-28 09:10 23.36455 113.08005 17354 ft 395 kts 182°
2026-04-28 09:11 23.33683 113.08021 17737 ft 398 kts 182°
2026-04-28 09:11 23.30922 113.08037 18120 ft 400 kts 182°
2026-04-28 09:11 23.28109 113.08173 18478 ft 405 kts 176°
2026-04-28 09:11 23.25316 113.08713 18821 ft 411 kts 169°
2026-04-28 09:12 23.22579 113.09672 19160 ft 416 kts 161°
2026-04-28 09:12 23.19905 113.10861 19517 ft 418 kts 160°
2026-04-28 09:12 23.17217 113.12104 19849 ft 421 kts 160°
2026-04-28 09:12 23.14504 113.13361 20166 ft 423 kts 160°
2026-04-28 09:13 23.11795 113.14606 20482 ft 425 kts 160°
2026-04-28 09:13 23.09037 113.15867 20815 ft 427 kts 160°
2026-04-28 09:13 23.06292 113.17117 21128 ft 430 kts 160°
2026-04-28 09:13 23.03543 113.18359 21446 ft 431 kts 161°
2026-04-28 09:14 23.00706 113.19496 21750 ft 432 kts 165°
2026-04-28 09:14 22.97844 113.20505 22042 ft 433 kts 165°
2026-04-28 09:14 22.94956 113.21506 22330 ft 435 kts 165°
2026-04-28 09:14 22.92042 113.22517 22616 ft 438 kts 165°
2026-04-28 09:15 22.89130 113.23525 22894 ft 440 kts 165°
2026-04-28 09:15 22.86213 113.24537 23158 ft 442 kts 165°
2026-04-28 09:15 22.83296 113.25548 23429 ft 444 kts 165°
2026-04-28 09:15 22.80345 113.26572 23707 ft 446 kts 165°
2026-04-28 09:16 22.77381 113.27599 23956 ft 448 kts 165°
2026-04-28 09:16 22.74385 113.28637 24202 ft 450 kts 165°
2026-04-28 09:16 22.71385 113.29678 24446 ft 453 kts 165°
2026-04-28 09:16 22.68358 113.30725 24693 ft 455 kts 165°
2026-04-28 09:17 22.65341 113.31770 24932 ft 457 kts 166°
2026-04-28 09:17 22.62332 113.32810 25188 ft 458 kts 166°
2026-04-28 09:17 22.59282 113.33864 25424 ft 460 kts 166°
2026-04-28 09:17 22.56193 113.34931 25652 ft 462 kts 166°
2026-04-28 09:18 22.53122 113.35992 25877 ft 464 kts 166°
2026-04-28 09:18 22.50053 113.37051 26093 ft 466 kts 166°
2026-04-28 09:18 22.46970 113.38116 26313 ft 468 kts 166°
2026-04-28 09:18 22.43862 113.39189 26528 ft 469 kts 166°
2026-04-28 09:19 22.40710 113.40277 26732 ft 471 kts 166°
2026-04-28 09:19 22.37583 113.41354 26926 ft 473 kts 166°
2026-04-28 09:19 22.34447 113.42434 27136 ft 475 kts 166°
2026-04-28 09:19 22.31298 113.43475 27322 ft 474 kts 170°
2026-04-28 09:20 22.28018 113.43810 27458 ft 466 kts 188°
2026-04-28 09:20 22.24904 113.43107 27655 ft 456 kts 204°
2026-04-28 09:20 22.22125 113.41518 27850 ft 448 kts 220°
2026-04-28 09:20 22.19889 113.39225 27983 ft 443 kts 234°
2026-04-28 09:21 22.18332 113.36433 28150 ft 438 kts 249°
2026-04-28 09:21 22.17193 113.33360 28414 ft 436 kts 250°
2026-04-28 09:21 22.16086 113.30325 28632 ft 437 kts 250°
2026-04-28 09:21 22.14966 113.27280 28862 ft 436 kts 250°
2026-04-28 09:22 22.13839 113.24273 29132 ft 435 kts 249°
2026-04-28 09:22 22.12620 113.21303 29402 ft 434 kts 248°
2026-04-28 09:22 22.11393 113.18349 29684 ft 433 kts 248°
2026-04-28 09:22 22.10163 113.15391 29945 ft 432 kts 248°
2026-04-28 09:23 22.08931 113.12429 30208 ft 431 kts 248°
2026-04-28 09:23 22.07707 113.09484 30468 ft 430 kts 248°
2026-04-28 09:23 22.06498 113.06577 30741 ft 429 kts 248°
2026-04-28 09:23 22.05284 113.03659 31012 ft 428 kts 248°
2026-04-28 09:24 22.04061 113.00726 31285 ft 427 kts 248°
2026-04-28 09:24 22.02882 112.97825 31560 ft 425 kts 249°
2026-04-28 09:24 22.01738 112.94881 31824 ft 424 kts 250°
2026-04-28 09:24 22.00606 112.91944 32088 ft 423 kts 250°
2026-04-28 09:25 21.99487 112.89046 32342 ft 422 kts 250°
2026-04-28 09:25 21.98364 112.86155 32602 ft 421 kts 249°
2026-04-28 09:25 21.97228 112.83240 32845 ft 420 kts 249°
2026-04-28 09:25 21.96092 112.80360 33100 ft 420 kts 249°
2026-04-28 09:26 21.94930 112.77477 33365 ft 419 kts 249°
2026-04-28 09:26 21.93773 112.74622 33615 ft 418 kts 249°
2026-04-28 09:26 21.92603 112.71729 33876 ft 417 kts 249°
2026-04-28 09:26 21.91455 112.68888 34115 ft 416 kts 249°
2026-04-28 09:27 21.89152 112.63185 34482 ft 417 kts 249°
2026-04-28 09:27 21.87997 112.60322 34646 ft 417 kts 249°
2026-04-28 09:27 21.86839 112.57460 34776 ft 418 kts 249°
2026-04-28 09:28 21.85689 112.54618 34922 ft 418 kts 249°
2026-04-28 09:28 21.84543 112.51751 35067 ft 418 kts 249°
2026-04-28 09:28 21.83397 112.48862 35199 ft 419 kts 249°
2026-04-28 09:28 21.82251 112.45973 35307 ft 419 kts 249°
2026-04-28 09:29 21.81112 112.43099 35432 ft 419 kts 249°
2026-04-28 09:29 21.79963 112.40208 35540 ft 420 kts 249°
2026-04-28 09:29 21.77663 112.34418 35715 ft 421 kts 249°
2026-04-28 09:30 21.76522 112.31549 35821 ft 421 kts 249°
2026-04-28 09:30 21.75375 112.28667 35874 ft 422 kts 249°
2026-04-28 09:30 21.73051 112.22831 35879 ft 423 kts 249°
2026-04-28 09:31 21.70739 112.17036 35877 ft 423 kts 249°
2026-04-28 09:31 21.68423 112.11234 35876 ft 422 kts 249°
2026-04-28 09:32 21.66117 112.05461 35872 ft 423 kts 248°
2026-04-28 09:32 21.63802 111.99675 35871 ft 422 kts 248°
2026-04-28 09:33 21.61484 111.93883 35873 ft 422 kts 248°
2026-04-28 09:33 21.59164 111.88100 35870 ft 422 kts 248°
2026-04-28 09:34 21.56959 111.82308 35868 ft 421 kts 251°
2026-04-28 09:34 21.55168 111.76331 35867 ft 420 kts 253°
2026-04-28 09:35 21.53447 111.70338 35867 ft 420 kts 253°
2026-04-28 09:35 21.51728 111.64361 35866 ft 420 kts 253°
2026-04-28 09:36 21.50012 111.58400 35862 ft 419 kts 253°
2026-04-28 09:36 21.48291 111.52420 35861 ft 419 kts 253°
2026-04-28 09:37 21.46574 111.46464 35860 ft 420 kts 253°
2026-04-28 09:37 21.44850 111.40495 35859 ft 419 kts 253°
2026-04-28 09:38 21.43126 111.34534 35860 ft 419 kts 253°
2026-04-28 09:38 21.41401 111.28576 35858 ft 419 kts 253°
2026-04-28 09:39 21.39678 111.22639 35858 ft 419 kts 253°
2026-04-28 09:39 21.37950 111.16685 35858 ft 418 kts 253°
2026-04-28 09:40 21.36227 111.10763 35855 ft 418 kts 253°
2026-04-28 09:40 21.34492 111.04807 35851 ft 418 kts 253°
2026-04-28 09:41 21.32763 110.98875 35853 ft 418 kts 252°
2026-04-28 09:41 21.31029 110.92941 35851 ft 418 kts 253°
2026-04-28 09:42 21.29294 110.87009 35848 ft 418 kts 252°
2026-04-28 09:42 21.27558 110.81084 35847 ft 417 kts 252°
2026-04-28 09:43 21.25822 110.75164 35847 ft 417 kts 252°
2026-04-28 09:43 21.24086 110.69255 35845 ft 418 kts 252°
2026-04-28 09:44 21.22344 110.63329 35847 ft 418 kts 252°
2026-04-28 09:44 21.20604 110.57419 35842 ft 417 kts 252°
2026-04-28 09:45 21.18855 110.51487 35844 ft 417 kts 252°
2026-04-28 09:45 21.17113 110.45587 35841 ft 417 kts 252°
2026-04-28 09:46 21.15783 110.39558 35843 ft 419 kts 262°
2026-04-28 09:46 21.15740 110.33297 35843 ft 423 kts 273°
2026-04-28 09:47 21.17031 110.27134 35838 ft 429 kts 285°
2026-04-28 09:47 21.19552 110.21329 35841 ft 433 kts 293°
2026-04-28 09:48 21.22406 110.15652 35836 ft 435 kts 294°
2026-04-28 09:48 21.25280 110.09956 35836 ft 435 kts 293°
2026-04-28 09:49 21.28130 110.04290 35836 ft 434 kts 293°
2026-04-28 09:49 21.31004 109.98570 35834 ft 435 kts 293°
2026-04-28 09:50 21.33865 109.92872 35832 ft 435 kts 293°
2026-04-28 09:50 21.36713 109.87186 35830 ft 435 kts 294°
2026-04-28 09:51 21.39578 109.81466 35830 ft 435 kts 294°
2026-04-28 09:51 21.42433 109.75758 35831 ft 435 kts 293°
2026-04-28 09:52 21.45279 109.70060 35829 ft 435 kts 294°
2026-04-28 09:52 21.48147 109.64317 35830 ft 436 kts 293°
2026-04-28 09:53 21.50998 109.58591 35832 ft 435 kts 294°
2026-04-28 09:53 21.53845 109.52876 35831 ft 435 kts 294°
2026-04-28 09:54 21.56723 109.47176 35831 ft 436 kts 296°
2026-04-28 09:54 21.60038 109.41696 35831 ft 440 kts 301°
2026-04-28 09:55 21.63848 109.36550 35832 ft 443 kts 305°
2026-04-28 09:55 21.67815 109.31476 35833 ft 443 kts 305°
2026-04-28 09:56 21.71764 109.26425 35832 ft 442 kts 305°
2026-04-28 09:56 21.75716 109.21360 35831 ft 442 kts 305°
2026-04-28 09:57 21.79672 109.16284 35831 ft 443 kts 305°
2026-04-28 09:57 21.83631 109.11197 35833 ft 442 kts 305°
2026-04-28 09:58 21.87580 109.06145 35833 ft 443 kts 306°
2026-04-28 09:58 21.91549 109.01080 35834 ft 443 kts 306°
2026-04-28 09:59 21.95518 108.96011 35831 ft 442 kts 306°
2026-04-28 09:59 21.99460 108.90968 35831 ft 443 kts 306°
2026-04-28 10:00 22.03439 108.85867 35839 ft 442 kts 306°
2026-04-28 10:00 22.07377 108.80813 35840 ft 443 kts 306°
2026-04-28 10:01 22.11337 108.75726 35830 ft 443 kts 306°
2026-04-28 10:01 22.15297 108.70667 35831 ft 444 kts 306°
2026-04-28 10:02 22.19292 108.65565 35822 ft 443 kts 306°
2026-04-28 10:02 22.23274 108.60468 35821 ft 444 kts 306°
2026-04-28 10:03 22.27247 108.55379 35822 ft 444 kts 306°
2026-04-28 10:03 22.31200 108.50308 35824 ft 444 kts 306°
2026-04-28 10:04 22.35194 108.45179 35817 ft 445 kts 307°
2026-04-28 10:04 22.39154 108.40092 35819 ft 445 kts 307°
2026-04-28 10:05 22.43129 108.34974 35818 ft 445 kts 306°
2026-04-28 10:05 22.47085 108.29878 35816 ft 445 kts 306°
2026-04-28 10:06 22.51074 108.24739 35815 ft 444 kts 307°
2026-04-28 10:06 22.55033 108.19625 35811 ft 444 kts 306°
2026-04-28 10:07 22.59038 108.14544 35806 ft 446 kts 309°
2026-04-28 10:07 22.63306 108.09641 35808 ft 446 kts 310°
2026-04-28 10:08 22.67559 108.04789 35808 ft 447 kts 310°
2026-04-28 10:08 22.71825 107.99915 35793 ft 447 kts 310°
2026-04-28 10:09 22.76095 107.95029 35793 ft 447 kts 310°
2026-04-28 10:09 22.80391 107.90106 35789 ft 448 kts 311°
2026-04-28 10:10 22.84673 107.85194 35779 ft 449 kts 310°
2026-04-28 10:10 22.88942 107.80292 35773 ft 450 kts 311°
2026-04-28 10:11 22.93234 107.75358 35776 ft 451 kts 311°
2026-04-28 10:11 22.97531 107.70413 35778 ft 451 kts 311°
2026-04-28 10:12 23.01846 107.65443 35796 ft 452 kts 311°
2026-04-28 10:12 23.06162 107.60477 35807 ft 453 kts 311°
2026-04-28 10:13 23.10500 107.55482 35814 ft 454 kts 311°
2026-04-28 10:13 23.14829 107.50488 35819 ft 455 kts 311°
2026-04-28 10:14 23.19141 107.45512 35825 ft 455 kts 310°
2026-04-28 10:14 23.23483 107.40492 35827 ft 456 kts 310°
2026-04-28 10:15 23.27844 107.35445 35830 ft 457 kts 310°
2026-04-28 10:15 23.32199 107.30398 35833 ft 457 kts 310°
2026-04-28 10:16 23.36536 107.25369 35839 ft 458 kts 310°
2026-04-28 10:16 23.40877 107.20328 35842 ft 458 kts 310°
2026-04-28 10:17 23.45244 107.15256 35847 ft 459 kts 310°
2026-04-28 10:17 23.49594 107.10196 35844 ft 459 kts 310°
2026-04-28 10:18 23.53975 107.05091 35847 ft 460 kts 310°
2026-04-28 10:18 23.58327 107.00018 35840 ft 460 kts 310°
2026-04-28 10:19 23.62670 106.94950 35843 ft 460 kts 310°
2026-04-28 10:19 23.67052 106.89826 35836 ft 461 kts 310°
2026-04-28 10:20 23.71415 106.84727 35836 ft 461 kts 310°
2026-04-28 10:20 23.75776 106.79618 35821 ft 462 kts 310°
2026-04-28 10:21 23.80146 106.74497 35825 ft 462 kts 310°
2026-04-28 10:21 23.84522 106.69357 35841 ft 463 kts 310°
2026-04-28 10:22 23.88609 106.63937 35849 ft 460 kts 301°
2026-04-28 10:22 23.91794 106.57936 35859 ft 458 kts 292°
2026-04-28 10:23 23.94027 106.51495 35858 ft 456 kts 283°
2026-04-28 10:23 23.95484 106.44764 35862 ft 456 kts 280°
2026-04-28 10:24 23.96833 106.38020 35858 ft 457 kts 280°
2026-04-28 10:24 23.98197 106.31209 35859 ft 457 kts 279°
2026-04-28 10:25 23.99553 106.24461 35860 ft 458 kts 280°
2026-04-28 10:25 24.00916 106.17680 35856 ft 459 kts 280°
2026-04-28 10:26 24.02285 106.10847 35854 ft 460 kts 281°
2026-04-28 10:26 24.03649 106.04046 35856 ft 461 kts 281°
2026-04-28 10:27 24.05011 105.97226 35864 ft 460 kts 280°
2026-04-28 10:27 24.06375 105.90376 35883 ft 460 kts 280°
2026-04-28 10:28 24.07724 105.83579 35913 ft 459 kts 280°
2026-04-28 10:29 24.09746 105.73357 35939 ft 458 kts 281°
2026-04-28 10:29 24.11243 105.66625 35940 ft 457 kts 283°
2026-04-28 10:30 24.12882 105.59923 35944 ft 456 kts 283°
2026-04-28 10:30 24.14512 105.53259 35949 ft 454 kts 283°
2026-04-28 10:31 24.16137 105.46587 35960 ft 452 kts 283°
2026-04-28 10:31 24.17744 105.39967 35959 ft 452 kts 283°
2026-04-28 10:32 24.19348 105.33344 35968 ft 451 kts 283°
2026-04-28 10:32 24.20949 105.26718 35980 ft 450 kts 283°
2026-04-28 10:33 24.22531 105.20114 35980 ft 448 kts 282°
2026-04-28 10:33 24.24002 105.13509 35976 ft 448 kts 282°
2026-04-28 10:34 24.25459 105.06890 35983 ft 446 kts 282°
2026-04-28 10:34 24.26913 105.00293 36001 ft 446 kts 282°
2026-04-28 10:35 24.28359 104.93735 36004 ft 445 kts 282°
2026-04-28 10:35 24.29808 104.87162 36017 ft 445 kts 282°
2026-04-28 10:36 24.31255 104.80581 36026 ft 444 kts 282°
2026-04-28 10:36 24.32696 104.74008 36034 ft 444 kts 282°
2026-04-28 10:37 24.34137 104.67429 36047 ft 444 kts 282°
2026-04-28 10:37 24.35564 104.60892 36057 ft 443 kts 282°
2026-04-28 10:38 24.36997 104.54316 36061 ft 442 kts 282°
2026-04-28 10:38 24.38413 104.47798 36063 ft 442 kts 282°
2026-04-28 10:39 24.39834 104.41248 36079 ft 441 kts 282°
2026-04-28 10:39 24.41238 104.34761 36082 ft 440 kts 281°
2026-04-28 10:40 24.42656 104.28202 36091 ft 440 kts 281°
2026-04-28 10:40 24.44050 104.21725 36098 ft 440 kts 281°
2026-04-28 10:41 24.45452 104.15206 36101 ft 439 kts 281°
2026-04-28 10:41 24.46847 104.08707 36117 ft 438 kts 281°
2026-04-28 10:42 24.48232 104.02238 36136 ft 437 kts 281°
2026-04-28 10:42 24.49613 103.95769 36144 ft 437 kts 281°
2026-04-28 10:43 24.50993 103.89288 36150 ft 435 kts 281°
2026-04-28 10:43 24.52368 103.82817 36160 ft 435 kts 281°
2026-04-28 10:44 24.53930 103.76440 36165 ft 436 kts 286°
2026-04-28 10:44 24.56067 103.70222 36170 ft 437 kts 291°
2026-04-28 10:45 24.58682 103.64178 36173 ft 438 kts 293°
2026-04-28 10:45 24.61339 103.58195 36172 ft 436 kts 294°
2026-04-28 10:46 24.63999 103.52203 36179 ft 436 kts 293°
2026-04-28 10:46 24.66632 103.46255 36180 ft 435 kts 293°
2026-04-28 10:47 24.69271 103.40283 36181 ft 434 kts 293°
2026-04-28 10:47 24.71908 103.34310 36182 ft 434 kts 293°
2026-04-28 10:48 24.74522 103.28380 36178 ft 433 kts 293°
2026-04-28 10:48 24.77153 103.22401 36173 ft 432 kts 293°
2026-04-28 10:49 24.79765 103.16464 36181 ft 431 kts 293°
2026-04-28 10:49 24.82362 103.10546 36185 ft 431 kts 293°
2026-04-28 10:50 24.84953 103.04639 36194 ft 430 kts 293°
2026-04-28 10:50 24.87550 102.98703 36203 ft 429 kts 293°
2026-04-28 10:51 24.90124 102.92812 36203 ft 429 kts 293°
2026-04-28 10:51 24.92714 102.86886 36195 ft 429 kts 293°
2026-04-28 10:52 24.95326 102.81004 36188 ft 429 kts 294°
2026-04-28 10:52 24.97943 102.75126 36181 ft 428 kts 294°
2026-04-28 10:53 25.00550 102.69244 36179 ft 428 kts 293°
2026-04-28 10:53 25.03155 102.63341 36192 ft 428 kts 292°
2026-04-28 10:54 25.04931 102.57139 36201 ft 424 kts 278°
2026-04-28 10:54 25.05240 102.50706 36208 ft 423 kts 266°
2026-04-28 10:55 25.04100 102.44353 36205 ft 424 kts 253°
2026-04-28 10:55 25.01672 102.38448 36197 ft 427 kts 245°
2026-04-28 10:56 24.98937 102.32690 36185 ft 426 kts 244°
2026-04-28 10:56 24.96173 102.26894 36171 ft 427 kts 244°
2026-04-28 10:57 24.93409 102.21107 36162 ft 427 kts 244°
2026-04-28 10:57 24.90660 102.15355 36152 ft 428 kts 244°
2026-04-28 10:58 24.87894 102.09571 36144 ft 428 kts 244°
2026-04-28 10:58 24.85128 102.03796 36133 ft 428 kts 244°
2026-04-28 10:59 24.82348 101.98000 36136 ft 428 kts 244°
2026-04-28 10:59 24.79566 101.92209 36138 ft 428 kts 244°
2026-04-28 11:00 24.76786 101.86420 36142 ft 429 kts 244°
2026-04-28 11:00 24.74014 101.80660 36142 ft 429 kts 244°
2026-04-28 11:01 24.71220 101.74864 36146 ft 428 kts 244°
2026-04-28 11:01 24.68438 101.69104 36146 ft 428 kts 244°
2026-04-28 11:02 24.65898 101.63207 36133 ft 426 kts 252°
2026-04-28 11:02 24.64565 101.56926 36128 ft 423 kts 264°
2026-04-28 11:03 24.64537 101.50547 36114 ft 422 kts 276°
2026-04-28 11:03 24.65785 101.44232 36118 ft 423 kts 285°
2026-04-28 11:04 24.67502 101.38097 36137 ft 423 kts 286°
2026-04-28 11:04 24.69239 101.31946 36161 ft 422 kts 285°
2026-04-28 11:05 24.70965 101.25822 36174 ft 421 kts 286°
2026-04-28 11:05 24.72697 101.19662 36182 ft 420 kts 286°
2026-04-28 11:06 24.74402 101.13590 36183 ft 419 kts 286°
2026-04-28 11:06 24.76119 101.07459 36174 ft 418 kts 286°
2026-04-28 11:07 24.77828 101.01354 36162 ft 418 kts 286°
2026-04-28 11:07 24.79519 100.95293 36160 ft 417 kts 286°
2026-04-28 11:08 24.81218 100.89196 36181 ft 417 kts 286°
2026-04-28 11:08 24.82916 100.83097 36183 ft 417 kts 286°
2026-04-28 11:09 24.84599 100.77035 36204 ft 417 kts 286°
2026-04-28 11:09 24.86285 100.70955 36191 ft 417 kts 286°
2026-04-28 11:10 24.87969 100.64867 36193 ft 415 kts 286°
2026-04-28 11:10 24.89642 100.58810 36180 ft 415 kts 286°
2026-04-28 11:11 24.91325 100.52708 36173 ft 415 kts 286°
2026-04-28 11:11 24.92991 100.46651 36176 ft 416 kts 286°
2026-04-28 11:12 24.94660 100.40572 36170 ft 414 kts 286°
2026-04-28 11:12 24.96441 100.34569 36159 ft 416 kts 293°
2026-04-28 11:12 24.97918 100.31831 36160 ft 419 kts 304°
2026-04-28 11:13 24.99895 100.29425 36169 ft 424 kts 314°
2026-04-28 11:13 25.04978 100.26102 36174 ft 437 kts 335°
2026-04-28 11:13 25.07979 100.25320 36170 ft 447 kts 347°
2026-04-28 11:14 25.11133 100.25244 36174 ft 457 kts 358°
2026-04-28 11:14 25.17459 100.26049 36178 ft 458 kts
2026-04-28 11:15 25.23791 100.26913 35977 ft 458 kts
2026-04-28 11:15 25.26958 100.27341 35694 ft 455 kts
2026-04-28 11:15 25.30110 100.27765 35415 ft 452 kts
2026-04-28 11:15 25.33195 100.28179 35140 ft 450 kts
2026-04-28 11:16 25.36304 100.28597 34857 ft 449 kts
2026-04-28 11:16 25.39440 100.29013 34400 ft 449 kts
2026-04-28 11:16 25.42529 100.29427 33774 ft 451 kts
2026-04-28 11:16 25.45651 100.29842 33036 ft 453 kts
2026-04-28 11:17 25.48778 100.30257 32287 ft 454 kts
2026-04-28 11:17 25.51903 100.30672 31485 ft 456 kts
2026-04-28 11:17 25.55083 100.31094 30640 ft 458 kts
2026-04-28 11:17 25.58244 100.31516 29770 ft 461 kts
2026-04-28 11:18 25.61433 100.32004 28835 ft 465 kts
2026-04-28 11:18 25.64613 100.32718 27983 ft 467 kts 10°
2026-04-28 11:18 25.67722 100.33660 27420 ft 466 kts 14°
2026-04-28 11:18 25.70818 100.34801 26870 ft 464 kts 15°
2026-04-28 11:19 25.73862 100.35979 26327 ft 460 kts 16°
2026-04-28 11:19 25.76852 100.37147 25778 ft 455 kts 16°
2026-04-28 11:19 25.79831 100.38309 25210 ft 451 kts 16°
2026-04-28 11:19 25.82802 100.39465 24647 ft 446 kts 16°
2026-04-28 11:20 25.85705 100.40591 24094 ft 441 kts 15°
2026-04-28 11:20 25.88589 100.41709 23531 ft 437 kts 15°
2026-04-28 11:20 25.91436 100.42812 22968 ft 433 kts 15°
2026-04-28 11:20 25.94284 100.43916 22401 ft 428 kts 15°
2026-04-28 11:21 25.97087 100.45002 21844 ft 424 kts 16°
2026-04-28 11:21 25.99855 100.46074 21282 ft 420 kts 15°
2026-04-28 11:21 26.02564 100.47128 20909 ft 409 kts 15°
2026-04-28 11:21 26.05207 100.48155 20617 ft 397 kts 15°
2026-04-28 11:22 26.07806 100.49166 20339 ft 386 kts 15°
2026-04-28 11:22 26.10345 100.49924 20009 ft 371 kts
2026-04-28 11:22 26.12824 100.49567 19793 ft 348 kts 335°
2026-04-28 11:22 26.14791 100.48241 19624 ft 325 kts 315°
2026-04-28 11:23 26.16160 100.46316 19416 ft 313 kts 297°
2026-04-28 11:23 26.16910 100.44093 19215 ft 303 kts 287°
2026-04-28 11:23 26.17489 100.41908 19094 ft 285 kts 287°
2026-04-28 11:23 26.18045 100.39826 18977 ft 274 kts 287°
2026-04-28 11:24 26.18583 100.37846 18898 ft 261 kts 287°
2026-04-28 11:24 26.19111 100.35928 18812 ft 256 kts 287°
2026-04-28 11:24 26.19627 100.34058 18717 ft 253 kts 288°
2026-04-28 11:24 26.20142 100.32192 18610 ft 250 kts 287°
2026-04-28 11:25 26.20650 100.30354 18311 ft 251 kts 288°
2026-04-28 11:25 26.21162 100.28500 17990 ft 250 kts 287°
2026-04-28 11:25 26.21671 100.26656 17681 ft 249 kts 287°
2026-04-28 11:25 26.22178 100.24813 17380 ft 248 kts 288°
2026-04-28 11:26 26.22680 100.22990 17067 ft 247 kts 287°
2026-04-28 11:26 26.23184 100.21162 16755 ft 246 kts 288°
2026-04-28 11:26 26.23681 100.19351 16444 ft 245 kts 287°
2026-04-28 11:26 26.24179 100.17542 16134 ft 244 kts 287°
2026-04-28 11:27 26.24671 100.15750 15827 ft 243 kts 287°
2026-04-28 11:27 26.25182 100.13955 15513 ft 242 kts 294°
2026-04-28 11:27 26.26194 100.12481 15144 ft 245 kts 323°
2026-04-28 11:27 26.27780 100.11762 14804 ft 250 kts 348°
2026-04-28 11:28 26.29507 100.11671 14454 ft 255 kts
2026-04-28 11:28 26.31270 100.12045 14127 ft 257 kts 11°
2026-04-28 11:28 26.32982 100.12593 13965 ft 253 kts 13°
2026-04-28 11:28 26.34633 100.13165 13945 ft 243 kts 14°
2026-04-28 11:29 26.36243 100.13728 13746 ft 238 kts 14°
2026-04-28 11:29 26.37786 100.14265 13680 ft 223 kts 14°
2026-04-28 11:29 26.39233 100.14765 13408 ft 219 kts 14°
2026-04-28 11:29 26.40683 100.15262 13116 ft 214 kts 14°
2026-04-28 11:30 26.42074 100.15736 12748 ft 206 kts 14°
2026-04-28 11:30 26.44714 100.16637 12025 ft 193 kts 14°
2026-04-28 11:30 26.46000 100.17075 11551 ft 192 kts 14°
2026-04-28 11:31 26.47278 100.17508 11126 ft 191 kts 14°
2026-04-28 11:31 26.48560 100.17944 10859 ft 192 kts 15°
2026-04-28 11:31 26.49834 100.18378 10626 ft 192 kts 15°
2026-04-28 11:31 26.51121 100.18817 10381 ft 192 kts 15°
2026-04-28 11:32 26.52395 100.19252 10135 ft 191 kts 15°
2026-04-28 11:32 26.53643 100.19679 9880 ft 181 kts 15°
2026-04-28 11:32 26.54803 100.20076 9633 ft 167 kts 15°
2026-04-28 11:32 26.55877 100.20442 9412 ft 156 kts 15°
2026-04-28 11:33 26.56913 100.20795 9230 ft 155 kts 14°
2026-04-28 11:33 26.57941 100.21145 9050 ft 154 kts 14°
2026-04-28 11:33 26.58967 100.21494 8863 ft 154 kts 15°
2026-04-28 11:33 26.59989 100.21843 8671 ft 153 kts 15°
2026-04-28 11:34 26.61020 100.22195 8470 ft 153 kts 15°
2026-04-28 11:34 26.62035 100.22542 8272 ft 153 kts 14°
2026-04-28 11:34 26.63061 100.22880 8069 ft 152 kts 15°
2026-04-28 11:34 26.64074 100.23241 7885 ft 152 kts 15°
2026-04-28 11:35 26.65081 100.23586 7694 ft 151 kts 14°
2026-04-28 11:35 26.66098 100.23930 7501 ft 151 kts 14°
2026-04-28 11:35 26.67078 100.24259 7409 ft 133 kts 16°
2026-04-28 11:35 26.67714 100.24477 7408 ft 67 kts 17°
2026-04-28 11:36 26.68146 100.24624 7406 ft 60 kts 19°
2026-04-28 11:36 26.68536 100.24754 7405 ft 55 kts 17°
2026-04-28 11:36 26.68844 100.24863 7404 ft 36 kts 16°
2026-04-28 11:36 26.68967 100.24900 7404 ft 13 kts 240°
2026-04-28 11:37 26.68867 100.24869 7404 ft 16 kts 193°
2026-04-28 11:37 26.68748 100.24829 7405 ft 19 kts 197°
2026-04-28 11:37 26.68598 100.24778 7405 ft 25 kts 197°
2026-04-28 11:37 26.68403 100.24713 7406 ft 31 kts 201°
2026-04-28 11:38 26.68177 100.24634 7406 ft 35 kts 196°
2026-04-28 11:38 26.67946 100.24557 7407 ft 35 kts 197°
2026-04-28 11:38 26.67702 100.24472 7408 ft 39 kts 195°
2026-04-28 11:38 26.67433 100.24380 7408 ft 37 kts 195°
2026-04-28 11:39 26.67234 100.24324 7409 ft 22 kts 159°
2026-04-28 11:39 26.67182 100.24437 7409 ft 13 kts 107°
2026-04-28 11:39 26.67163 100.24500 7409 ft 6 kts 105°
2026-04-28 11:39 26.67153 100.24545 7409 ft 6 kts 106°
2026-04-28 11:40 26.67145 100.24574 7409 ft 0 kts 106°